sat.trackr.live / text

‹ back to catalog

STARLINK-34310

NORAD 64210 · 2025-117H

PAYLOAD ACTIVE UNKNOWN

§ Identity

Operator
Country
US
Launch date
2025-05-31
Launch site
AFWTR
Launch vehicle
Mass (kg)
RCS (m²)

Purposes: comms

External: N2YO · Heavens-Above · Gunter

§ Orbital elements

Epoch: 2026-09-20T03:21:35.491104Z

Period
93.85 min
Inclination
53.1582°
Eccentricity
0.0001397
Mean motion
15.34407570 rev/d
Perigee alt
461.7 km
Apogee alt
463.6 km
Semi-major
6,840.8 km
B*
7.1924e-4
RAAN
215.2170°
Arg perigee
90.2070°
Mean anomaly
269.9093°
Rev number
7,431

§ Raw data

STARLINK-343101 64210U 25117H   26263.13999411  .00024008  00000+0  71924-3 0  99942 64210  53.1582 215.2170 0001397  90.2070 269.9093 15.34407570 74314

JSON: /api/v1/satellites/64210 · /tle

For live sub-satellite position, see the globe view (requires WebGL).

§ Visibility from observer

Set your observer location to see the next 7 days of passes ≥ 10°. The values pass through the URL so the page stays shareable.

No JS? Fill the form by hand. The geolocation button needs JavaScript.